Simultaneous Nadir Overpasses (SNOs) Predictions

Prediction of SNOs near equator between AQUA and NPP Satellite Orbit:

Table of predicted SNOs near equator for the next 14.0 days since TLE Epoch: 11/29/2019
Index Date (AQUA) Time (AQUA) AQUA Lat,Lon Date (NPP) Time (NPP) NPP Lat,Lon Distance(km) Time Diff (sec)
1 11/30/2019 07:53:45 -10.11, -96.06 11/30/2019 07:43:45 -10.14, -96.27 22.77 600
2 11/30/2019 08:40:58 1.81, 73.34 11/30/2019 08:32:11 1.71, 72.93 47.40 527
3 11/30/2019 09:29:06 2.70,-118.04 11/30/2019 09:21:34 2.84,-118.72 77.13 452
4 12/03/2019 00:08:47 -4.90, 20.95 12/02/2019 23:59:09 -4.87, 20.70 27.32 578
5 12/03/2019 00:57:01 0.29,-170.45 12/03/2019 00:48:39 0.20,-170.96 57.68 502
6 12/03/2019 01:45:10 4.17, -1.85 12/03/2019 01:38:02 4.35, -2.61 87.24 428
7 12/05/2019 16:24:50 -3.44, 137.14 12/05/2019 16:15:36 -3.36, 136.81 37.53 554
8 12/05/2019 17:13:04 -1.17, -54.25 12/05/2019 17:05:06 -1.31, -54.85 67.89 478
9 12/05/2019 18:01:12 5.69, 114.36 12/05/2019 17:54:29 5.86, 113.50 97.24 403
10 12/08/2019 07:54:29 12.72, 83.37 12/08/2019 07:44:29 12.76, 83.12 26.85 600
11 12/08/2019 08:40:53 -1.93,-106.65 12/08/2019 08:32:04 -1.86,-107.08 47.92 529
12 12/08/2019 09:29:07 -2.69, 61.95 12/08/2019 09:21:34 -2.81, 61.26 78.15 453
13 12/11/2019 00:08:49 4.99,-159.08 12/10/2019 23:59:09 4.91,-159.32 28.45 580
14 12/11/2019 00:56:57 -0.48, 9.54 12/11/2019 00:48:32 -0.36, 9.03 58.28 505
15 12/11/2019 01:45:11 -4.13, 178.15 12/11/2019 01:38:02 -4.31, 177.37 88.30 429
16 12/13/2019 16:24:52 3.49, -42.87 12/13/2019 16:15:37 3.41, -43.21 38.63 555
17 12/13/2019 17:13:00 1.01, 125.74 12/13/2019 17:05:00 1.14, 125.14 68.61 480
18 12/13/2019 18:01:14 -5.63, -65.65 12/13/2019 17:54:30 -5.81, -66.52 98.38 404




NCC Satellite Simultaneous Nadir Overpasses (SNOs) Prediction Service
